Regional Weather Roundup
Issued by NWS San Angelo, TX

Home | Current Version | Previous Version | Text Only | Print | Product List | Glossary On
Versions: 1 2 3 4 5 6 7 8 9 10 11 12 13 14 15 16 17 18 19 20 21 22 23 24 25 26 27 28 29 30 31 32 33 34 35 36 37 38 39 40 41 42 43 44 45 46 47 48 49 50
859
ASUS44 KSJT 200310
RWRSJT
WEST CENTRAL TEXAS REGIONAL WEATHER ROUNDUP
NATIONAL WEATHER SERVICE SAN ANGELO TX
900 PM CST THU JAN 19 2017

NOTE: "FAIR" INDICATES FEW OR NO CLOUDS BELOW 12,000 FEET WITH NO
SIGNIFICANT WEATHER AND/OR OBSTRUCTIONS TO VISIBILITY.

TXZ049-054-064>066-071>073-076>078-098-099-113-114-127-128-139-140-
154-155-168>170-200400
...LOCATIONS ACROSS WEST CENTRAL TEXAS...

CITY           SKY/WX    TMP DP  RH WIND       PRES   REMARKS
SAN ANGELO     CLEAR     55  31  39 W12       29.72R
ABILENE        CLEAR     56  35  45 SW14      29.65R
DYESS AFB      CLEAR     57  28  32 SW10      29.64R
JUNCTION       CLEAR     53  41  63 CALM      29.74R
SWEETWATER     CLEAR     55  35  48 SW13      29.69R
BROWNWOOD      PTCLDY    55  39  54 S7        29.69S
COLEMAN        CLOUDY    55  37  50 SW10      29.69S
SONORA         CLEAR     57  32  38 CALM      29.80S
OZONA          FAIR      52  32  46 MISG      29.79S
BRADY          NOT AVBL
$$

TEXAS PANHANDLE/OKLAHOMA PANHANDLE

CITY           SKY/WX    TMP DP  RH WIND       PRES   REMARKS
AMARILLO       CLOUDY    46  29  51 SW5       29.55F
BORGER         CLOUDY    39  36  89 E3        29.56S
CANADIAN       CLOUDY    33  32  97 CALM      29.57S
DALHART        CLOUDY    39  35  86 SE8       29.55F WCI  33
DUMAS          CLOUDY    35  33  91 E7        29.54F WCI  29
GUYMON         NOT AVBL
HEREFORD       CLOUDY    50  32  50 W17G24    29.58F
PAMPA          CLEAR     36  33  87 E7        29.57S WCI  31
PERRYTON       NOT AVBL
$$

SOUTHERN PANHANDLE/SOUTH PLAINS/ROLLING PLAINS

CITY           SKY/WX    TMP DP  RH WIND       PRES   REMARKS
LUBBOCK        CLOUDY    46  32  58 W10       29.62S
SNYDER         CLEAR     49  34  56 SW10      29.67R
CHILDRESS      CLEAR     48  36  63 S7        29.56R
SEMINOLE       CLOUDY    54  30  40 W18G31    29.69F
$$

PERMIAN BASIN

CITY           SKY/WX    TMP DP  RH WIND       PRES   REMARKS
MIDLAND        CLEAR     55  30  38 W20       29.72R
ODESSA         CLEAR     55  28  35 W18       29.73S
WINK           PTCLDY    56  27  32 SW20G26   29.73F
$$

FAR WEST/SOUTHWEST MOUNTAINS/TRANS PECOS

CITY           SKY/WX    TMP DP  RH WIND       PRES   REMARKS
ALPINE         CLEAR     45  25  45 CALM      29.92R
DRYDEN           N/A     55  31  39 W9        29.78R
EL PASO        MOCLDY    53  24  32 W14G24    29.86R
FORT STOCKTON  CLEAR     49  28  44 SW10      29.80R
GUADALUPE PASS NOT AVBL
MARFA          CLEAR     38  24  57 W8        29.90R WCI  32
PECOS          CLOUDY    49  30  48 W8        29.79S
$$

DALLAS/FORT WORTH METROPLEX

CITY           SKY/WX    TMP DP  RH WIND       PRES   REMARKS
DFW AIRPORT    CLEAR     58  54  86 S15       29.62F
FTW MEACHAM    CLEAR     57  52  83 S10       29.62S
DAL-EXECUTIVE  CLEAR     56  53  90 S10G18    29.64S
GRAND PRAIRIE  CLEAR     57  52  84 S9        29.65F
ADDISON        CLEAR     57  55  94 S12G18    29.64S
MESQUITE       CLEAR     54  52  94 S10       29.66S
LANCASTER      CLEAR     54  51  90 S9G16     29.67S
$$

NORTH CENTRAL TEXAS

CITY           SKY/WX    TMP DP  RH WIND       PRES   REMARKS
SHRMAN/DENISON CLEAR     54  54  97 S15       29.63R
GAINESVILLE    CLEAR     52  49  90 SE7       29.62S
BRIDGEPORT     CLEAR     60  41  49 S9        29.62S
DENTON         CLEAR     55  52  89 S12       29.62R
WAXAHACHIE     CLEAR     54  54 100 S10       29.67S
GRANBURY       CLEAR     59  42  54 S8        29.65S
$$

WESTERN NORTH TEXAS

CITY           SKY/WX    TMP DP  RH WIND       PRES   REMARKS
WICHITA FALLS  CLEAR     50  37  61 SW9       29.55S
VERNON         CLEAR     50  36  58 SE7       29.57R
BRECKENRIDGE   CLEAR     58  38  48 SW12      29.63R
COMANCHE       CLEAR     58  42  55 SW10      29.69R
$$

CENTRAL AND SOUTH CENTRAL TEXAS

CITY           SKY/WX    TMP DP  RH WIND       PRES   REMARKS
AUSTIN/BERGSTM CLEAR     58  54  86 SW6       29.73R
WACO           CLEAR     56  54  93 S12       29.68S
HILLSBORO      CLEAR     56  54  92 S13       29.67S
TEMPLE         CLEAR     57  55  93 S15       29.71R
KILLEEN-GRAY   CLEAR     61  42  50 S7        29.69R
FORT HOOD      CLEAR     54  52  91 S5        29.67R
GEORGETOWN     CLEAR     59  52  77 S5        29.72
LAGO VISTA     FAIR      62  52  69 SW7       29.74R
SAN MARCOS     CLEAR     55  52  88 CALM      29.75S
NEW BRAUNFELS  CLEAR     57  52  83 SW9       29.73R
RANDOLPH AFB   CLEAR     60  53  80 S6        29.74S
SAN ANTONIO    PTCLDY    62  49  62 S5        29.75R
STINSON        CLEAR     55  50  83 CALM      29.73S
PLEASANTON     NOT AVBL
LA GRANGE      CLEAR     59  58  97 S6        29.74R
GIDDINGS       MOCLDY    56  55  97 S6        29.76R FOG
$$

EAST TEXAS

CITY           SKY/WX    TMP DP  RH WIND       PRES   REMARKS
PARIS          CLEAR     48  46  93 S8        29.68R
CLARKSVILLE    NOT AVBL
TYLER          MOCLDY    56  54  93 S14       29.71R
LONGVIEW       PTCLDY    55  55 100 S8        29.71S
PALESTINE      CLOUDY    56  56  98 S3        29.74R
NACOGDOCHES    CLOUDY    61  55  82 S12       29.74R
$$

TEXAS HILL COUNTRY AND EDWARDS PLATEAU

CITY           SKY/WX    TMP DP  RH WIND       PRES   REMARKS
LLANO          CLEAR     54  43  66 CALM      29.74S
HORSESHOE BAY  FAIR      58  42  55 S7        29.72R
KERRVILLE      CLEAR     51  44  76 N3        29.76R
FREDERICKSBRG  CLEAR     49  39  66 CALM      29.75S
ROCKSPRINGS    CLEAR     55  39  54 W7        29.80R
HONDO          CLEAR     59  46  62 W6        29.76R
UVALDE         CLEAR     52  46  80 CALM      29.77R
DEL RIO        CLEAR     58  45  62 CALM      29.75R
$$

SOUTHEAST TEXAS

CITY           SKY/WX    TMP DP  RH WIND       PRES   REMARKS
COLLEGE STN    CLEAR     59  57  93 S9        29.74S
CALDWELL       NOT AVBL
CROCKETT       PTCLDY    57  55  94 S7        29.76S
BRENHAM        CLOUDY    60  59  98 S7        29.77R FOG
HUNTSVILLE     CLEAR     58  56  93 S8        29.75R
CONROE         CLOUDY    61  59  93 S7        29.77F
HOUSTON BUSH   CLOUDY    63  59  87 CALM      29.78R
HOUSTON HOBBY  MOCLDY    63  61  93 S3        29.78R
PERLAND        CLOUDY    66  61  84 S7        29.79S
WHARTON        CLEAR     59  58  96 S6        29.79R
$$

THE UPPER TEXAS COAST

CITY           SKY/WX    TMP DP  RH WIND       PRES   REMARKS
ORANGE         CLOUDY   N/A N/A N/A S3        29.81R
PORT ARTHUR    CLOUDY    63  59  87 S5        29.79R
GALVESTON      MOCLDY    67  64  90 S9        29.79S
ANGLETON       CLEAR     61  60  97 S3        29.79S
BAY CITY       CLEAR     60  60  99 S3        29.79S
$$

TEXAS COASTAL BEND, RIO GRANDE PLAINS DEEP SOUTH TEXAS

CITY           SKY/WX    TMP DP  RH WIND       PRES   REMARKS
VICTORIA       CLEAR     60  58  92 S8        29.77S
BEEVILLE       FAIR      60  60 100 SE3       29.77S
ROCKPORT       CLEAR     62  60  93 S7        29.77F
PORT ARANSAS   CLOUDY    63  61  93 S8        29.78F
PORT LAVACA    CLEAR     59  59 100 CALM      29.79R FOG
CORPUS CHRISTI MOCLDY    59  59 100 S9        29.77F
KINGSVILLE NAS CLEAR     59  59 100 S8        29.77F
COTULLA        CLEAR     64  50  60 E9        29.74R
LAREDO         CLEAR     68  56  65 S12       29.76R
BROWNSVILLE    CLOUDY    64  62  93 SE5       29.81S
PORT ISABEL    CLOUDY    61  61 100 SE7       29.80S FOG
HEBBRONVILLE   CLEAR     60  57  89 S3        29.78R
MCALLEN        CLOUDY    63  60  90 E3        29.80S FOG
WESLACO        MOCLDY    61  60  97 CALM      29.79S FOG
FALFURRIAS     CLEAR     60  59  96 SE7       29.77S
EDINBURG       CLOUDY    64  61  89 CALM      29.80S FOG
$$




USA.gov is the U.S. government's official web portal to all federal, state and local government web resources and services.